Theta_e
342 343 343 342 341 341 339 339 338 338 338 337 339 339 339 339 338 336 335 334 333 331 331 331 331 333 336 336 337 337 336 332 327 327 329 332 333 332 332 330 330 330 333
342 342 343 343 342 341 339 339 339 337 336 337 336 337 338 339 337 336 335 337 334 333 332 333 334 336 333 332 334 335 335 333 328 325 327 328 329 331 327 325 327 328 330
343 343 342 342 342 341 340 340 340 336 336 335 334 336 336 336 336 336 335 335 334 333 332 331 333 333 331 331 332 331 329 333 328 327 324 326 328 328 325 324 323 322 327
343 343 343 343 343 342 342 340 339 337 336 335 335 334 335 335 335 335 335 332 330 331 332 332 333 333 331 331 330 332 333 331 328 327 325 325 327 327 327 322 318 317 321
344 343 344 344 344 343 341 340 338 337 336 335 334 334 334 334 336 332 334 330 328 327 329 333 334 334 334 331 329 333 331 328 326 325 323 323 323 324 323 324 320 318 317
343 344 343 343 342 341 339 334 336 335 335 336 335 335 335 335 327 327 331 328 329 328 327 330 329 333 330 330 330 333 332 328 325 324 322 322 323 325 324 323 319 316 315
344 346 345 341 340 333 330 330 328 328 330 332 333 334 332 331 322 323 328 327 326 326 327 328 329 332 329 329 328 329 329 328 328 327 323 323 324 325 327 323 321 318 317
343 344 342 341 333 331 330 329 327 328 327 327 325 330 333 332 320 318 324 323 323 326 327 328 327 328 327 328 329 330 326 328 328 328 326 326 325 326 328 326 324 322 321
342 344 343 338 333 330 329 329 329 326 325 327 326 324 331 333 317 315 319 319 319 324 326 327 329 329 323 321 327 326 324 323 321 322 322 320 320 321 324 326 322 321 319
335 339 342 335 332 328 327 328 328 325 322 324 324 324 326 334 314 312 319 320 317 320 322 322 324 326 318 317 327 325 321 322 322 322 322 321 319 319 321 326 325 321 320
331 331 333 333 331 328 325 323 320 324 326 321 322 323 331 334 320 310 313 320 319 318 321 320 321 315 312 312 315 324 322 322 322 320 320 320 320 319 319 320 321 324 321
324 325 324 327 329 330 325 323 321 320 319 319 322 326 334 332 318 309 309 315 318 320 320 320 320 309 307 309 314 311 310 315 320 321 318 317 318 320 320 320 320 320 321
322 318 318 318 320 325 321 319 320 319 320 323 327 331 332 330 323 309 307 310 313 319 321 316 311 306 305 308 311 309 309 312 312 318 318 316 318 320 320 319 320 320 319
322 318 316 316 317 318 318 321 320 319 320 322 328 329 329 328 324 314 313 313 313 320 316 312 312 311 311 313 313 311 311 310 309 309 308 308 309 312 314 319 319 323 322
322 324 318 319 318 326 321 317 322 321 317 321 324 325 329 328 327 316 316 318 319 317 315 316 316 316 314 313 316 317 315 309 309 308 307 307 307 311 312 312 320 321 320
316 318 319 322 327 327 324 313 304 303 303 307 304 314 325 317 307 306 305 303 303 304 317 321 319 316 315 316 317 320 321 319 315 314 313 314 315 316 316 316 315 312 314
314 316 318 317 322 323 323 323 316 306 299 298 303 303 306 307 303 301 300 298 298 307 321 321 320 321 320 321 318 322 320 321 321 320 319 318 318 318 316 316 316 315 314
316 311 315 318 319 320 323 323 320 318 314 308 301 299 296 298 298 298 298 304 314 314 314 316 315 315 315 318 319 317 317 315 314 314 312 311 312 313 312 312 312 312 312
315 314 317 318 319 318 321 323 320 314 311 308 310 304 298 295 295 295 297 315 314 313 314 314 315 315 315 313 312 311 310 313 313 312 310 309 312 312 310 310 308 305 305
311 315 314 317 319 319 320 320 318 316 316 314 312 310 308 310 313 311 311 315 315 316 319 316 315 314 313 311 309 309 309 309 308 311 313 313 312 312 310 310 310 309 309
309 310 314 316 317 319 320 319 320 317 317 318 317 315 304 318 316 315 315 316 316 317 315 313 311 312 309 309 308 305 303 302 302 303 304 304 303 303 303 305 308 307 305
308 309 310 314 315 314 318 319 320 321 319 319 318 311 302 317 315 313 312 312 313 312 311 307 305 305 306 306 305 303 302 299 299 300 301 301 300 300 300 299 298 298 299
309 311 311 311 312 313 314 317 318 319 321 320 317 317 316 314 312 312 312 311 310 308 306 305 302 300 299 299 299 298 297 295 295 297 298 298 298 297 297 297 297 296 295
308 309 310 309 310 310 310 312 314 312 319 318 316 315 314 313 311 310 311 308 308 307 305 302 298 295 292 291 290 289 289 289 289 289 291 294 296 296 297 296 296 297 295
309 312 312 308 309 311 309 309 309 313 314 312 312 312 312 311 310 309 309 307 305 303 299 295 293 292 291 290 288 287 285 283 285 286 290 293 293 293 295 295 295 294 293
311 312 312 312 313 312 312 312 311 311 312 312 312 311 310 309 308 307 305 303 300 296 293 291 290 289 288 287 286 285 284 283 285 285 289 287 286 285 286 286 286 286 286
Wind_Speed
8 7 7 6 6 6 6 6 7 6 6 7 7 7 6 6 5 4 5 5 5 5 4 5 6 4 4 4 3 3 5 3 3 2 2 3 4 5 4 3 4 3 2
8 7 7 7 7 7 6 6 6 6 6 7 6 6 6 7 7 6 6 5 6 6 7 5 7 3 5 4 3 4 4 6 4 4 2 2 3 5 4 4 4 3 2
8 8 7 7 7 7 8 8 7 6 5 3 4 6 7 6 6 6 6 6 5 6 5 5 6 4 4 3 3 3 2 2 2 3 2 2 2 3 3 3 3 3 2
10 10 11 9 9 9 6 6 5 6 7 8 7 6 6 6 7 6 7 6 6 5 4 5 4 4 5 3 3 1 1 2 3 4 2 3 2 3 4 4 3 2 2
10 11 11 9 8 6 6 5 5 3 4 3 3 4 5 5 5 6 6 7 6 4 4 5 5 5 3 3 2 3 4 3 3 3 2 1 2 5 6 3 2 2 1
8 11 8 8 6 2 10 14 12 8 5 4 5 5 6 4 7 8 6 5 7 6 5 3 4 6 4 3 4 9 6 5 4 3 2 4 4 3 4 6 3 3 3
14 10 6 4 10 15 15 17 13 11 12 10 11 7 8 7 9 9 7 5 5 5 6 6 4 3 6 2 1 7 6 7 5 5 5 6 6 8 7 8 5 3 3
13 8 5 10 14 11 11 11 12 15 14 11 8 10 11 9 12 11 9 5 5 5 5 6 7 7 6 5 3 2 2 3 3 2 4 4 3 5 8 6 5 4 3
3 7 9 10 13 13 12 12 10 12 12 15 10 10 11 11 15 13 11 6 5 5 3 4 6 7 9 8 5 4 2 1 3 1 3 5 6 6 5 4 3 4 2
6 7 7 12 13 13 13 14 11 8 10 9 12 11 13 13 15 15 10 5 4 3 2 2 6 6 10 9 6 5 4 3 2 1 2 3 2 4 7 5 4 5 2
7 6 4 5 9 9 7 6 1 5 6 5 7 7 11 14 11 16 14 6 5 4 4 3 3 7 7 8 4 5 5 3 3 3 2 1 1 2 3 3 4 5 3
4 5 6 6 2 3 7 6 1 4 5 5 5 7 7 8 11 13 14 10 8 6 5 4 4 9 7 8 5 6 8 5 4 3 2 1 2 3 3 4 5 5 3
6 4 7 6 5 3 3 4 3 4 4 5 7 8 6 7 7 14 13 10 9 5 4 5 6 7 9 6 6 5 4 3 3 3 3 3 3 3 2 2 4 5 5
8 6 5 5 5 5 2 4 5 5 4 4 4 6 5 5 6 6 5 5 7 5 8 5 6 6 4 4 5 4 3 3 3 2 3 2 1 2 2 3 3 4 4
9 8 6 4 5 5 0 3 3 2 3 5 5 1 4 4 5 9 11 7 6 6 6 4 3 3 2 1 0 2 3 3 3 2 2 2 2 1 0 1 0 2 4
7 6 7 6 4 4 3 2 12 9 10 6 4 2 1 7 14 14 10 12 11 11 3 3 2 3 3 3 2 2 2 1 2 3 2 2 2 2 1 1 1 2 2
5 5 6 6 5 5 3 4 3 5 15 14 6 8 6 11 14 14 13 11 10 8 3 3 3 3 3 3 3 2 2 3 3 2 2 2 1 2 2 1 0 0 1
6 5 3 5 5 5 5 2 3 4 3 4 12 8 13 14 17 16 16 12 5 3 2 3 3 3 3 3 4 3 4 4 4 4 4 3 3 3 3 3 3 2 2
4 5 5 4 4 6 4 3 3 5 6 4 5 9 10 16 15 12 5 3 5 3 4 4 4 4 4 4 4 4 4 4 3 3 3 3 3 3 3 3 3 4 3
4 9 4 4 4 4 5 3 4 5 6 6 6 4 2 3 3 3 1 2 5 4 4 5 5 6 6 5 5 4 4 3 2 2 3 2 2 3 3 2 2 1 1
5 5 8 3 3 4 3 3 1 3 5 6 6 4 4 6 4 6 5 5 6 7 6 6 5 6 5 6 6 6 5 4 4 3 4 4 3 4 4 4 5 5 4
5 5 5 3 3 3 2 0 2 4 3 5 5 2 10 6 5 7 8 7 7 7 7 7 6 6 5 5 5 5 5 4 3 4 3 4 3 3 3 4 3 2 2
5 5 5 4 3 3 3 2 0 1 4 5 5 4 5 6 7 8 8 8 7 7 6 7 9 7 5 5 5 4 5 4 2 2 3 3 3 2 1 1 1 0 0
4 5 3 3 4 4 4 4 3 4 5 6 6 6 6 6 7 8 7 7 8 8 6 6 6 8 7 5 4 4 4 3 2 3 3 3 2 2 2 2 2 2 1
4 3 3 4 4 4 5 5 4 5 6 6 6 6 7 8 7 7 7 7 7 7 6 5 5 8 8 8 6 5 4 2 2 2 2 4 5 5 4 3 3 2 3
5 4 3 3 5 4 4 5 5 5 6 6 7 7 7 5 5 6 7 7 6 6 7 5 6 8 8 6 6 6 5 5 6 7 5 5 5 4 4 5 6 4 4
Wind_Direction
172 168 167 182 186 180 183 193 201 200 199 184 185 186 196 204 210 204 221 230 225 240 248 244 258 255 262 248 209 193 201 182 185 159 159 182 171 147 121 91 76 62 70
176 169 176 176 173 182 195 203 202 211 191 195 184 194 201 185 184 197 211 214 209 222 228 226 251 237 254 250 239 215 189 192 165 167 156 151 172 161 130 120 110 82 70
170 172 180 185 181 191 193 189 189 187 203 198 189 187 185 193 191 201 212 224 228 224 239 244 246 224 260 262 240 259 263 216 184 153 157 149 137 146 122 98 93 86 82
188 187 188 189 194 195 193 203 176 200 193 187 187 202 198 197 200 205 195 195 209 212 196 210 225 228 234 235 247 234 185 157 161 169 167 158 125 129 146 141 131 80 107
193 205 201 190 188 190 162 190 174 211 250 268 249 230 214 207 214 205 196 186 188 219 212 190 183 195 196 213 196 199 171 156 153 155 115 97 137 157 173 152 124 137 146
213 215 201 190 184 151 53 46 16 340 289 208 235 258 271 241 229 210 190 181 183 198 201 201 154 146 155 203 235 206 191 163 161 147 149 183 179 147 132 165 133 150 208
284 234 196 142 105 111 109 105 79 44 26 356 324 275 217 238 212 194 186 181 189 193 184 180 182 165 153 198 299 170 189 194 203 171 185 194 180 181 158 173 182 157 178
229 234 141 139 142 155 154 145 139 154 185 220 227 252 245 200 196 184 179 192 185 197 186 182 177 167 165 175 167 137 194 224 230 212 197 206 183 163 186 191 181 150 101
216 209 167 164 167 169 172 184 192 182 191 197 220 214 241 240 181 184 159 185 200 196 174 194 181 171 156 166 159 168 144 254 38 160 194 205 179 163 149 123 157 166 187
336 311 188 172 184 184 187 198 204 197 196 193 218 210 220 229 179 183 163 147 194 195 170 134 185 175 151 166 166 175 187 209 172 84 58 58 155 183 171 193 169 187 148
318 322 280 188 205 221 223 244 105 212 220 228 213 248 239 202 185 176 161 148 184 172 186 174 157 150 156 168 163 161 180 158 173 132 113 84 122 159 187 194 196 206 184
323 306 295 287 290 299 288 308 323 183 201 232 264 243 223 210 178 174 169 162 169 165 180 184 165 165 157 140 136 134 144 134 139 138 124 269 221 194 204 201 210 225 248
325 301 289 304 330 332 303 279 220 203 169 205 218 234 205 175 174 161 165 158 166 153 147 152 150 159 147 137 103 124 114 107 125 153 195 208 217 236 176 185 207 212 226
316 321 302 293 301 272 256 223 209 211 180 204 243 166 171 154 155 131 137 131 136 135 121 127 121 119 104 118 120 129 144 168 181 199 195 227 239 171 176 187 192 185 219
353 332 303 291 289 293 333 303 269 218 192 225 200 194 175 156 191 148 154 152 163 150 111 108 110 115 136 150 222 190 164 169 182 196 206 234 250 238 292 51 172 180 221
355 353 336 318 289 275 198 105 22 12 6 326 48 211 140 159 152 154 155 134 145 146 108 136 155 189 186 171 188 181 160 195 207 188 190 190 195 213 185 129 133 166 207
336 351 328 329 323 304 256 172 167 48 59 28 67 104 147 140 137 136 132 126 136 146 137 144 158 158 152 142 153 154 123 93 91 103 112 102 111 113 134 76 89 293 6
317 326 316 347 337 321 307 274 143 150 108 46 30 59 82 109 116 119 121 110 121 60 105 141 151 138 123 119 108 92 97 90 81 81 74 70 68 69 67 75 50 46 38
325 318 330 338 334 341 350 43 76 100 97 110 113 68 59 80 93 90 22 117 132 146 135 119 132 123 114 102 85 80 80 73 85 103 97 92 94 91 83 81 82 75 66
336 320 315 325 337 351 10 21 94 94 94 98 76 90 84 46 82 94 162 130 120 119 99 101 89 83 88 88 84 83 88 73 48 79 92 81 85 91 92 52 91 70 62
317 319 323 295 311 336 30 18 94 122 121 114 114 133 154 104 115 95 85 70 104 115 111 100 97 94 87 94 98 91 84 74 60 44 58 60 68 75 67 61 60 60 68
310 316 317 289 251 252 295 185 69 129 130 126 115 119 108 98 91 86 82 77 79 93 97 98 92 84 83 93 101 101 101 94 71 72 83 90 81 85 97 100 97 103 104
313 309 319 324 351 279 234 263 322 15 109 116 107 86 87 101 104 102 100 101 88 86 93 99 98 88 69 72 69 93 110 106 97 88 90 81 73 68 52 91 138 184 251
325 319 350 18 34 55 54 65 65 113 120 106 108 120 117 111 110 99 100 101 103 97 94 92 97 108 95 82 76 66 73 66 41 33 64 97 76 33 53 42 24 353 9
345 352 53 68 64 71 79 67 75 85 97 97 104 98 99 96 90 100 103 101 100 100 91 95 90 94 92 97 93 88 74 42 32 353 51 70 66 46 44 44 29 33 16
4 13 54 61 80 59 59 86 78 74 78 89 97 89 100 119 113 109 109 109 105 95 98 90 102 108 107 94 81 69 57 51 53 54 74 70 71 54 59 52 39 36 18